UTA7775 USTR-USRO

Flight info

Callsign UTA7775
Flight time 1h 19m
Altitude 39000
Route SOLMU1Q SOLMU R717 INGIR INGIR1J
Aircraft B738/M-SDE2E3FGHIRWXY/LB1

Departure

Time 2026-04-20 09:23
Airport Roshchino International Airport (USTR)

Arrival

Time 2026-04-20 10:43
Airport Noyabrsk Airport (USRO)
Time Latitude Longitude Altitude Speed Heading
2026-04-20 08:39 57.18998 65.33018 367 ft 0 kts 44°
2026-04-20 09:18 57.19003 65.33026 367 ft 2 kts 44°
2026-04-20 09:18 57.19014 65.33047 367 ft 3 kts 44°
2026-04-20 09:19 57.19027 65.33070 367 ft 0 kts 44°
2026-04-20 09:21 57.19027 65.33071 367 ft 0 kts 44°
2026-04-20 09:21 57.19023 65.33095 367 ft 4 kts 136°
2026-04-20 09:21 57.18981 65.33035 368 ft 11 kts 269°
2026-04-20 09:22 57.19019 65.32858 367 ft 17 kts 310°
2026-04-20 09:22 57.19095 65.32694 365 ft 17 kts 284°
2026-04-20 09:22 57.19037 65.32523 365 ft 16 kts 224°
2026-04-20 09:22 57.18947 65.32454 368 ft 16 kts 150°
2026-04-20 09:23 57.18672 65.32946 371 ft 108 kts 135°
2026-04-20 09:23 57.17939 65.34371 458 ft 192 kts 133°
2026-04-20 09:23 57.17168 65.36617 1050 ft 227 kts 112°
2026-04-20 09:23 57.17003 65.39679 1398 ft 253 kts 77°
2026-04-20 09:24 57.17604 65.42787 1873 ft 260 kts 69°
2026-04-20 09:24 57.18246 65.45959 2661 ft 267 kts 70°
2026-04-20 09:24 57.18849 65.49202 3862 ft 268 kts 72°
2026-04-20 09:24 57.19415 65.52497 4986 ft 272 kts 73°
2026-04-20 09:25 57.19958 65.55882 6042 ft 278 kts 74°
2026-04-20 09:25 57.20485 65.59339 7063 ft 283 kts 75°
2026-04-20 09:25 57.21004 65.62869 8049 ft 288 kts 75°
2026-04-20 09:25 57.21520 65.66475 9001 ft 293 kts 76°
2026-04-20 09:26 57.22036 65.70148 9931 ft 298 kts 76°
2026-04-20 09:26 57.22560 65.73920 10602 ft 313 kts 76°
2026-04-20 09:26 57.23118 65.77974 10862 ft 338 kts 76°
2026-04-20 09:26 57.23703 65.82252 11481 ft 347 kts 76°
2026-04-20 09:27 57.24287 65.86540 12231 ft 351 kts 76°
2026-04-20 09:27 57.24883 65.90937 12985 ft 355 kts 76°
2026-04-20 09:27 57.25483 65.95380 13674 ft 359 kts 76°
2026-04-20 09:27 57.26091 65.99887 14331 ft 363 kts 76°
2026-04-20 09:28 57.26703 66.04439 14958 ft 368 kts 76°
2026-04-20 09:28 57.27322 66.09056 15563 ft 372 kts 76°
2026-04-20 09:28 57.27943 66.13718 16140 ft 375 kts 76°
2026-04-20 09:28 57.28565 66.18438 16693 ft 379 kts 76°
2026-04-20 09:29 57.29190 66.23206 17219 ft 383 kts 76°
2026-04-20 09:29 57.29817 66.28016 17724 ft 387 kts 77°
2026-04-20 09:29 57.30449 66.32872 18203 ft 390 kts 77°
2026-04-20 09:29 57.31084 66.37768 18661 ft 393 kts 77°
2026-04-20 09:30 57.31724 66.42711 19100 ft 396 kts 77°
2026-04-20 09:30 57.32366 66.47690 19518 ft 399 kts 77°
2026-04-20 09:30 57.33011 66.52704 19919 ft 402 kts 77°
2026-04-20 09:30 57.33659 66.57761 20301 ft 405 kts 77°
2026-04-20 09:31 57.34310 66.62856 20666 ft 408 kts 77°
2026-04-20 09:31 57.34962 66.67985 21014 ft 410 kts 77°
2026-04-20 09:31 57.35617 66.73147 21347 ft 413 kts 77°
2026-04-20 09:31 57.36274 66.78351 21664 ft 415 kts 77°
2026-04-20 09:32 57.36931 66.83569 21968 ft 418 kts 77°
2026-04-20 09:32 57.37584 66.88766 22254 ft 420 kts 77°
2026-04-20 09:32 57.38245 66.94049 22532 ft 422 kts 77°
2026-04-20 09:32 57.38908 66.99368 22800 ft 424 kts 77°
2026-04-20 09:33 57.39767 67.04610 23031 ft 427 kts 66°
2026-04-20 09:33 57.41238 67.09410 23283 ft 429 kts 54°
2026-04-20 09:33 57.43173 67.13465 23645 ft 431 kts 40°
2026-04-20 09:33 57.45444 67.17004 24610 ft 422 kts 38°
2026-04-20 09:34 57.47684 67.20439 25565 ft 415 kts 38°
2026-04-20 09:34 57.49894 67.23839 26430 ft 409 kts 38°
2026-04-20 09:34 57.54242 67.30633 27767 ft 407 kts 40°
2026-04-20 09:35 57.56378 67.33995 27920 ft 411 kts 40°
2026-04-20 09:35 57.58579 67.37474 27970 ft 417 kts 40°
2026-04-20 09:35 57.63031 67.44542 28077 ft 428 kts 40°
2026-04-20 09:36 57.67596 67.51819 28354 ft 432 kts 40°
2026-04-20 09:36 57.69876 67.55463 28614 ft 431 kts 40°
2026-04-20 09:36 57.72151 67.59105 28875 ft 430 kts 40°
2026-04-20 09:37 57.74415 67.62735 29097 ft 429 kts 40°
2026-04-20 09:37 57.76688 67.66387 29303 ft 429 kts 40°
2026-04-20 09:37 57.78956 67.70034 29476 ft 430 kts 40°
2026-04-20 09:37 57.81231 67.73698 29667 ft 430 kts 40°
2026-04-20 09:38 57.83495 67.77354 29885 ft 430 kts 40°
2026-04-20 09:38 57.85763 67.81024 29998 ft 430 kts 40°
2026-04-20 09:38 57.90294 67.88377 30003 ft 430 kts 41°
2026-04-20 09:39 57.94813 67.95736 30003 ft 429 kts 41°
2026-04-20 09:39 57.99324 68.03107 30002 ft 429 kts 41°
2026-04-20 09:40 58.03755 68.10372 30002 ft 429 kts 41°
2026-04-20 09:40 58.08256 68.17778 30002 ft 429 kts 41°
2026-04-20 09:41 58.12753 68.25199 30001 ft 429 kts 41°
2026-04-20 09:41 58.17310 68.32529 30001 ft 429 kts 39°
2026-04-20 09:42 58.21975 68.39594 30001 ft 430 kts 38°
2026-04-20 09:42 58.26643 68.46701 30001 ft 429 kts 39°
2026-04-20 09:43 58.31286 68.53858 30003 ft 430 kts 39°
2026-04-20 09:43 58.35918 68.61042 30000 ft 430 kts 39°
2026-04-20 09:44 58.40547 68.68242 29999 ft 429 kts 39°
2026-04-20 09:44 58.45133 68.75404 30002 ft 429 kts 39°
2026-04-20 09:45 58.49737 68.82633 30001 ft 428 kts 39°
2026-04-20 09:45 58.54342 68.89887 30002 ft 428 kts 39°
2026-04-20 09:46 58.58942 68.97160 30001 ft 429 kts 39°
2026-04-20 09:46 58.63534 69.04445 30002 ft 429 kts 39°
2026-04-20 09:47 58.68131 69.11763 30001 ft 429 kts 39°
2026-04-20 09:47 58.72719 69.19092 30001 ft 429 kts 40°
2026-04-20 09:48 58.77311 69.26453 30001 ft 429 kts 40°
2026-04-20 09:48 58.81865 69.33781 30001 ft 429 kts 40°
2026-04-20 09:49 58.86442 69.41172 30001 ft 429 kts 40°
2026-04-20 09:49 58.90965 69.48501 30001 ft 429 kts 40°
2026-04-20 09:50 58.95529 69.55924 30001 ft 429 kts 40°
2026-04-20 09:50 59.00093 69.63371 30002 ft 428 kts 40°
2026-04-20 09:51 59.03874 69.69563 30001 ft 428 kts 40°
2026-04-20 09:51 59.08292 69.76832 29976 ft 409 kts 39°
2026-04-20 09:52 59.10428 69.80350 29970 ft 397 kts 39°
2026-04-20 09:52 59.12525 69.83809 29993 ft 397 kts 39°
2026-04-20 09:52 59.16791 69.90855 30015 ft 407 kts 40°
2026-04-20 09:53 59.21152 69.98091 30011 ft 415 kts 40°
2026-04-20 09:53 59.25587 70.05477 30011 ft 422 kts 40°
2026-04-20 09:54 59.30091 70.13006 30007 ft 428 kts 40°
2026-04-20 09:54 59.34554 70.20496 29991 ft 428 kts 40°
2026-04-20 09:55 59.36775 70.24237 29973 ft 413 kts 39°
2026-04-20 09:55 59.38915 70.27842 29973 ft 398 kts 39°
2026-04-20 09:55 59.43073 70.34857 30010 ft 401 kts 39°
2026-04-20 09:56 59.47333 70.42083 29991 ft 405 kts 40°
2026-04-20 09:56 59.51554 70.49368 29991 ft 401 kts 40°
2026-04-20 09:57 59.55739 70.56642 29996 ft 400 kts 40°
2026-04-20 09:57 59.59912 70.63914 29997 ft 400 kts 40°
2026-04-20 09:58 59.64090 70.71213 29998 ft 402 kts 40°
2026-04-20 09:58 59.68279 70.78556 29995 ft 403 kts 40°
2026-04-20 09:59 59.72484 70.85950 29993 ft 404 kts 40°
2026-04-20 09:59 59.76642 70.93288 29995 ft 405 kts 40°
2026-04-20 10:00 59.80827 71.00697 30010 ft 406 kts 41°
2026-04-20 10:01 59.87718 71.12958 30010 ft 420 kts 42°
2026-04-20 10:01 59.89900 71.16856 30010 ft 423 kts 42°
2026-04-20 10:01 59.94312 71.24757 30006 ft 428 kts 42°
2026-04-20 10:02 59.98745 71.32727 29997 ft 429 kts 42°
2026-04-20 10:02 60.03173 71.40716 30000 ft 429 kts 42°
2026-04-20 10:03 60.07606 71.48747 30001 ft 429 kts 42°
2026-04-20 10:03 60.12018 71.56767 29999 ft 428 kts 42°
2026-04-20 10:04 60.16426 71.64812 30002 ft 427 kts 42°
2026-04-20 10:04 60.20818 71.72859 30000 ft 427 kts 42°
2026-04-20 10:05 60.25202 71.80920 30002 ft 426 kts 42°
2026-04-20 10:05 60.29570 71.88983 30002 ft 426 kts 42°
2026-04-20 10:06 60.33912 71.97029 30001 ft 426 kts 43°
2026-04-20 10:06 60.38278 72.05149 30000 ft 426 kts 43°
2026-04-20 10:07 60.42635 72.13283 30002 ft 427 kts 43°
2026-04-20 10:07 60.46285 72.20123 30001 ft 427 kts 43°
2026-04-20 10:08 60.50618 72.28270 30002 ft 427 kts 43°
2026-04-20 10:08 60.54972 72.36487 30002 ft 427 kts 43°
2026-04-20 10:09 60.59316 72.44719 30001 ft 427 kts 43°
2026-04-20 10:09 60.63657 72.52977 30002 ft 427 kts 43°
2026-04-20 10:10 60.67957 72.61187 30001 ft 427 kts 43°
2026-04-20 10:10 60.72285 72.69480 30002 ft 426 kts 43°
2026-04-20 10:11 60.76520 72.77632 30000 ft 426 kts 43°
2026-04-20 10:11 60.80825 72.85974 30003 ft 426 kts 43°
2026-04-20 10:12 60.85124 72.94343 30000 ft 426 kts 43°
2026-04-20 10:12 60.89420 73.02735 30001 ft 426 kts 44°
2026-04-20 10:13 60.93705 73.11139 30002 ft 426 kts 44°
2026-04-20 10:13 60.97988 73.19570 30002 ft 426 kts 44°
2026-04-20 10:14 61.02258 73.28010 30001 ft 426 kts 44°
2026-04-20 10:14 61.06531 73.36485 30002 ft 426 kts 44°
2026-04-20 10:15 61.10771 73.44930 30001 ft 426 kts 44°
2026-04-20 10:15 61.15029 73.53445 30001 ft 426 kts 44°
2026-04-20 10:16 61.19279 73.61980 30003 ft 426 kts 44°
2026-04-20 10:16 61.23532 73.70551 30001 ft 426 kts 44°
2026-04-20 10:17 61.27778 73.79141 29998 ft 425 kts 44°
2026-04-20 10:17 61.31994 73.87708 30002 ft 426 kts 44°
2026-04-20 10:18 61.36250 73.96393 30001 ft 425 kts 44°
2026-04-20 10:18 61.40446 74.04989 30002 ft 425 kts 44°
2026-04-20 10:19 61.44662 74.13658 30000 ft 424 kts 44°
2026-04-20 10:19 61.46748 74.17959 29807 ft 416 kts 44°
2026-04-20 10:19 61.48903 74.21957 29299 ft 414 kts 36°
2026-04-20 10:20 61.51363 74.25123 28586 ft 416 kts 26°
2026-04-20 10:20 61.54059 74.27415 27803 ft 420 kts 16°
2026-04-20 10:20 61.56874 74.29056 27244 ft 418 kts 14°
2026-04-20 10:20 61.59670 74.30584 26821 ft 412 kts 14°
2026-04-20 10:21 61.62425 74.32092 26369 ft 407 kts 14°
2026-04-20 10:21 61.65152 74.33619 25878 ft 404 kts 15°
2026-04-20 10:21 61.67848 74.35160 25385 ft 401 kts 15°
2026-04-20 10:21 61.70524 74.36710 24910 ft 397 kts 15°
2026-04-20 10:22 61.73178 74.38256 24446 ft 393 kts 15°
2026-04-20 10:22 61.75771 74.39770 23991 ft 390 kts 15°
2026-04-20 10:22 61.78373 74.41290 23531 ft 387 kts 15°
2026-04-20 10:22 61.80958 74.42798 23072 ft 383 kts 15°
2026-04-20 10:23 61.83523 74.44293 22523 ft 383 kts 15°
2026-04-20 10:23 61.86117 74.45807 22070 ft 379 kts 15°
2026-04-20 10:23 61.88608 74.47262 21708 ft 374 kts 15°
2026-04-20 10:23 61.91104 74.48724 21293 ft 370 kts 15°
2026-04-20 10:24 61.93611 74.50194 20835 ft 367 kts 15°
2026-04-20 10:24 61.96033 74.51618 20399 ft 365 kts 15°
2026-04-20 10:24 61.98471 74.53054 19966 ft 362 kts 15°
2026-04-20 10:24 62.00886 74.54478 19544 ft 359 kts 15°
2026-04-20 10:25 62.03281 74.55893 19073 ft 357 kts 15°
2026-04-20 10:25 62.05692 74.57320 18501 ft 359 kts 15°
2026-04-20 10:25 62.08090 74.58742 18050 ft 357 kts 15°
2026-04-20 10:25 62.10471 74.60156 17637 ft 353 kts 15°
2026-04-20 10:26 62.12827 74.61558 17230 ft 350 kts 15°
2026-04-20 10:26 62.15162 74.62948 16829 ft 347 kts 15°
2026-04-20 10:26 62.17472 74.64327 16433 ft 343 kts 15°
2026-04-20 10:26 62.19767 74.65698 16040 ft 340 kts 15°
2026-04-20 10:27 62.22032 74.67054 15650 ft 337 kts 15°
2026-04-20 10:27 62.24281 74.68402 15265 ft 334 kts 15°
2026-04-20 10:27 62.26513 74.69743 14882 ft 331 kts 15°
2026-04-20 10:27 62.28724 74.71072 14498 ft 329 kts 15°
2026-04-20 10:28 62.30918 74.72393 14119 ft 326 kts 15°
2026-04-20 10:28 62.33094 74.73706 13743 ft 323 kts 15°
2026-04-20 10:28 62.35251 74.75009 13369 ft 321 kts 15°
2026-04-20 10:28 62.37395 74.76306 12997 ft 319 kts 15°
2026-04-20 10:29 62.39525 74.77597 12625 ft 316 kts 15°
2026-04-20 10:29 62.41639 74.78879 12257 ft 314 kts 15°
2026-04-20 10:29 62.43734 74.80152 11892 ft 312 kts 15°
2026-04-20 10:29 62.45816 74.81420 11536 ft 310 kts 15°
2026-04-20 10:30 62.47884 74.82680 11177 ft 308 kts 15°
2026-04-20 10:30 62.49942 74.83935 10819 ft 306 kts 15°
2026-04-20 10:30 62.51976 74.85178 10466 ft 303 kts 15°
2026-04-20 10:30 62.53998 74.86417 10213 ft 298 kts 15°
2026-04-20 10:31 62.55937 74.87605 10081 ft 289 kts 15°
2026-04-20 10:31 62.57842 74.88777 9866 ft 284 kts 15°
2026-04-20 10:31 62.59740 74.89947 9557 ft 282 kts 15°
2026-04-20 10:31 62.61623 74.91109 9254 ft 281 kts 15°
2026-04-20 10:32 62.63495 74.92267 8944 ft 279 kts 15°
2026-04-20 10:32 62.65361 74.93422 8642 ft 278 kts 15°
2026-04-20 10:32 62.67220 74.94574 8332 ft 277 kts 15°
2026-04-20 10:32 62.69070 74.95721 8022 ft 276 kts 15°
2026-04-20 10:33 62.70917 74.96869 7713 ft 275 kts 15°
2026-04-20 10:33 62.72758 74.98013 7409 ft 274 kts 15°
2026-04-20 10:33 62.74586 74.99152 7100 ft 273 kts 15°
2026-04-20 10:33 62.76418 75.00225 6798 ft 272 kts 13°
2026-04-20 10:34 62.78227 75.01132 6611 ft 256 kts 12°
2026-04-20 10:34 62.79893 75.01937 6469 ft 236 kts 12°
2026-04-20 10:34 62.81437 75.02683 6328 ft 219 kts 12°
2026-04-20 10:35 62.84299 75.04080 5743 ft 215 kts 12°
2026-04-20 10:35 62.85773 75.04803 5347 ft 219 kts 12°
2026-04-20 10:35 62.87245 75.05530 5064 ft 215 kts 12°
2026-04-20 10:35 62.88676 75.06236 4813 ft 211 kts 12°
2026-04-20 10:36 62.90090 75.06939 4583 ft 206 kts 12°
2026-04-20 10:36 62.91476 75.07629 4356 ft 203 kts 12°
2026-04-20 10:36 62.92808 75.08293 4136 ft 200 kts 12°
2026-04-20 10:36 62.94150 75.08964 3917 ft 197 kts 12°
2026-04-20 10:37 62.95476 75.09626 3704 ft 193 kts 12°
2026-04-20 10:37 62.96773 75.10275 3512 ft 189 kts 12°
2026-04-20 10:37 62.98033 75.10907 3305 ft 182 kts 12°
2026-04-20 10:37 62.99239 75.11512 3118 ft 173 kts 12°
2026-04-20 10:38 63.00375 75.12082 2952 ft 160 kts 12°
2026-04-20 10:38 63.01410 75.12602 2751 ft 147 kts 12°
2026-04-20 10:38 63.02372 75.13086 2578 ft 138 kts 12°
2026-04-20 10:38 63.03306 75.13556 2435 ft 138 kts 12°
2026-04-20 10:39 63.04244 75.14029 2290 ft 138 kts 12°
2026-04-20 10:39 63.05185 75.14502 2141 ft 138 kts 12°
2026-04-20 10:39 63.06121 75.14974 1986 ft 138 kts 12°
2026-04-20 10:39 63.07060 75.15500 1861 ft 140 kts 19°
2026-04-20 10:40 63.07953 75.16281 1805 ft 137 kts 22°
2026-04-20 10:40 63.08813 75.17101 1809 ft 138 kts 23°
2026-04-20 10:40 63.09704 75.17984 1811 ft 139 kts 24°
2026-04-20 10:40 63.10566 75.18855 1801 ft 137 kts 24°
2026-04-20 10:41 63.11443 75.19721 1728 ft 141 kts 24°
2026-04-20 10:41 63.12338 75.20626 1549 ft 141 kts 24°
2026-04-20 10:41 63.13219 75.21536 1358 ft 138 kts 25°
2026-04-20 10:41 63.14078 75.22426 1178 ft 136 kts 25°
2026-04-20 10:42 63.14932 75.23309 1007 ft 136 kts 25°
2026-04-20 10:42 63.15791 75.24199 824 ft 136 kts 25°
2026-04-20 10:42 63.16638 75.25075 644 ft 134 kts 24°
2026-04-20 10:42 63.17484 75.25942 486 ft 131 kts 24°
2026-04-20 10:43 63.18092 75.26565 457 ft 47 kts 27°
2026-04-20 10:43 63.18252 75.26740 458 ft 23 kts 26°
2026-04-20 10:43 63.18338 75.26906 457 ft 13 kts 87°
2026-04-20 10:43 63.18306 75.27097 456 ft 13 kts 115°
2026-04-20 10:44 63.18267 75.27275 455 ft 12 kts 117°
2026-04-20 10:44 63.18291 75.27428 455 ft 12 kts 30°
2026-04-20 10:44 63.18350 75.27383 455 ft 6 kts 269°
2026-04-20 10:44 63.18339 75.27340 455 ft 3 kts 226°
2026-04-20 10:45 63.18316 75.27310 455 ft 0 kts 207°
2026-04-20 10:45 63.03663 75.13733 1992 ft 158 kts 12°
2026-04-20 10:45 63.03720 75.13765 2375 ft 138 kts 12°
2026-04-20 10:46 63.04616 75.14216 2231 ft 139 kts 12°
2026-04-20 10:46 63.05545 75.14683 2076 ft 138 kts 12°
2026-04-20 10:46 63.09368 75.17649 1813 ft 144 kts 24°
2026-04-20 10:47 63.16919 75.25365 589 ft 139 kts 24°
2026-04-20 10:47 63.17795 75.26258 459 ft 120 kts 24°
2026-04-20 10:48 63.17815 75.26278 457 ft 116 kts 24°
2026-04-20 10:48 63.17328 75.25785 518 ft 133 kts 24°
2026-04-20 10:48 63.16686 75.25125 635 ft 152 kts 24°
2026-04-20 10:48 63.17507 75.25966 482 ft 130 kts 24°
2026-04-20 10:49 63.18100 75.26575 458 ft 39 kts 27°
2026-04-20 10:49 63.17297 75.25753 522 ft 139 kts 24°
2026-04-20 10:50 63.17647 75.26108 469 ft 126 kts 24°
2026-04-20 10:50 63.18160 75.26641 459 ft 23 kts 26°
2026-04-20 10:50 63.13762 75.22099 1249 ft 136 kts 25°
2026-04-20 10:50 63.14618 75.22984 1073 ft 136 kts 24°
2026-04-20 10:51 63.17657 75.26119 469 ft 125 kts 24°
2026-04-20 10:51 63.17095 75.25547 564 ft 135 kts 25°
2026-04-20 10:51 63.17266 75.25722 526 ft 144 kts 24°
2026-04-20 10:54 63.17449 75.25907 493 ft 137 kts 24°
2026-04-20 10:55 63.17643 75.26104 469 ft 127 kts 24°
2026-04-20 10:56 63.17743 75.26205 460 ft 112 kts 24°
2026-04-20 10:56 63.17730 75.26192 461 ft 95 kts 24°
2026-04-20 10:56 63.17975 75.26440 457 ft 0 kts 25°